Laurinburg-Maxton, NC

10:21 AM EDT on May 29, 2017 (GMT -0400)
Laurinburg-Maxton

Weather History for KMEB - January, 2013

Change the Weather History Date:

Wednesday, January 23, 2013

  Actual Average (KHFF) Record (KHFF)
Temperature  
Mean Temperature 32 °F -  
Max Temperature 43 °F 51 °F 61 °F (2017)
Min Temperature 21 °F 28 °F 13 °F (2011)
Degree Days  
Heating Degree Days 33    
Moisture  
Dew Point 13 °F    
Average Humidity 48    
Maximum Humidity 72    
Minimum Humidity 26    
Precipitation  
Precipitation 0.00 in - - ()
Sea Level Pressure  
Sea Level Pressure 30.28 in    
Wind  
Wind Speed 5 mph (SE)    
Max Wind Speed 8 mph    
Max Gust Speed -    
Visibility 10 miles    
Events      
Averages and records for this station are not official NWS values.
T = Trace of Precipitation, MM = Missing Value Source: NWS Daily Summary

Daily Weather History Graph

Daily Weather History Graph

Search for Another Location

Airport or City:

Trip Planner

Search our weather history database for the weather conditions in past years. The results will help you decide how hot, cold, wet, or windy it might be!

Date:

Astronomy

Jan. 23, 2013 Rise Set
Actual Time 7:21 AM EST 5:37 PM EST
Civil Twilight 6:54 AM EST 6:04 PM EST
Nautical Twilight 6:23 AM EST 6:35 PM EST
Astronomical Twilight 5:53 AM EST 7:05 PM EST
Moon 2:48 PM EST (1/23) 4:29 AM EST (1/23)
Length of Visible Light 11h 10m
Length of Day
10h 16m
Waxing Gibbous, 89% of the Moon is Illuminated
Jan 23
Waxing Gibbous
Jan 26
Full
Feb 3
Last Quarter
Feb 10
New
Feb 17
First Quarter

Hourly Weather History & Observations

Time (EST) Temp. Windchill Dew Point Humidity Pressure Visibility Wind Dir Wind Speed Gust Speed Precip Events Conditions
12:52 AM 26.1 °F 19.4 °F 12.9 °F 58% 30.29 in 8.0 mi NNE 5.8 mph - N/A   Clear
1:52 AM 26.1 °F 19.4 °F 12.0 °F 55% 30.30 in 10.0 mi NE 5.8 mph - N/A   Clear
2:52 AM 25.0 °F 18.1 °F 10.9 °F 55% 30.32 in 10.0 mi NE 5.8 mph - N/A   Clear
3:52 AM 25.0 °F 19.3 °F 12.0 °F 58% 30.32 in 10.0 mi NE 4.6 mph - N/A   Clear
4:52 AM 24.1 °F 19.7 °F 12.9 °F 62% 30.32 in 10.0 mi ENE 3.5 mph - N/A   Clear
5:52 AM 23.0 °F 15.8 °F 10.9 °F 60% 30.35 in 10.0 mi NE 5.8 mph - N/A   Clear
6:52 AM 21.9 °F 17.2 °F 10.9 °F 63% 30.36 in 10.0 mi ENE 3.5 mph - N/A   Clear
7:52 AM 24.1 °F - 9.0 °F 53% 30.37 in 10.0 mi Calm Calm - N/A   Clear
8:52 AM 28.0 °F 20.0 °F 9.0 °F 45% 30.39 in 10.0 mi East 8.1 mph - N/A   Clear
9:52 AM 30.9 °F 25.2 °F 5.0 °F 33% 30.40 in 10.0 mi East 5.8 mph - N/A   Clear
10:52 AM 34.0 °F 29.8 °F 6.1 °F 31% 30.40 in 10.0 mi SE 4.6 mph - N/A   Clear
11:52 AM 36.0 °F - 5.0 °F 27% 30.38 in 10.0 mi Calm Calm - N/A   Clear
12:52 PM 39.9 °F 36.7 °F 7.0 °F 26% 30.33 in 10.0 mi Variable 4.6 mph - N/A   Clear
1:52 PM 42.1 °F 40.2 °F 9.0 °F 26% 30.28 in 10.0 mi Variable 3.5 mph - N/A   Clear
2:52 PM 43.0 °F 40.3 °F 10.0 °F 26% 30.26 in 10.0 mi Variable 4.6 mph - N/A   Clear
3:52 PM 43.0 °F 38.8 °F 12.0 °F 28% 30.26 in 10.0 mi WSW 6.9 mph - N/A   Clear
4:52 PM 42.1 °F 37.7 °F 12.9 °F 31% 30.25 in 10.0 mi WSW 6.9 mph - N/A   Clear
5:52 PM 37.9 °F 35.5 °F 19.0 °F 47% 30.23 in 10.0 mi South 3.5 mph - N/A   Clear
6:52 PM 34.0 °F 31.0 °F 21.9 °F 61% 30.23 in 10.0 mi SSE 3.5 mph - N/A   Clear
7:52 PM 34.0 °F 28.0 °F 21.0 °F 59% 30.20 in 10.0 mi South 6.9 mph - N/A   Clear
8:52 PM 30.9 °F 25.2 °F 19.9 °F 64% 30.18 in 10.0 mi South 5.8 mph - N/A   Clear
9:52 PM 35.1 °F 28.6 °F 19.9 °F 54% 30.17 in 10.0 mi SSW 8.1 mph - N/A   Clear
10:52 PM 35.1 °F 28.6 °F 25.0 °F 67% 30.14 in 10.0 mi SSW 8.1 mph - N/A   Clear
11:52 PM 35.1 °F 28.6 °F 27.0 °F 72% 30.11 in 10.0 mi SW 8.1 mph - N/A   Clear